When you browse on this site, cookies collect data to enhance your experience and personalize the content and advertising you see.
Visit our Privacy Policy to learn more. By continuing to use the site, you agree to this use of cookies and data.

Hourly Weather Gvardeyskoe

Today, 2 July, Thursday

Time Temperature Precipitation Wind Pressure Humidity
00:00 +16°C° 0 mm 2 mps 753 mmHg 94%
01:00 +16°C° 0 mm 2 mps 752 mmHg 93%
02:00 +16°C° 0.3 mm 2 mps 752 mmHg 94%
03:00 +16°C° 0.3 mm 3 mps 752 mmHg 95%
04:00 +17°C° 0.3 mm 3 mps 751 mmHg 96%
05:00 +18°C° 0 mm 4 mps 751 mmHg 93%
06:00 +19°C° 0 mm 4 mps 752 mmHg 91%
07:00 +21°C° 0 mm 5 mps 752 mmHg 87%
08:00 +21°C° 0.2 mm 5 mps 752 mmHg 84%
09:00 +21°C° 0.2 mm 6 mps 752 mmHg 82%
10:00 +22°C° 0.2 mm 6 mps 752 mmHg 80%
11:00 +22°C° 0.2 mm 6 mps 752 mmHg 77%
12:00 +22°C° 0.2 mm 6 mps 753 mmHg 74%
13:00 +22°C° 0.2 mm 6 mps 753 mmHg 71%
14:00 +22°C° 0.1 mm 5 mps 753 mmHg 71%
15:00 +22°C° 0.1 mm 4 mps 753 mmHg 72%
16:00 +21°C° 0.1 mm 4 mps 754 mmHg 72%
17:00 +20°C° 0 mm 3 mps 754 mmHg 77%
18:00 +19°C° 0 mm 2 mps 754 mmHg 81%
19:00 +19°C° 0 mm 1 mps 754 mmHg 85%
20:00 +18°C° 0 mm 1 mps 754 mmHg 87%
21:00 +16°C° 0 mm 1 mps 755 mmHg 88%
22:00 +15°C° 0 mm 1 mps 755 mmHg 90%
23:00 +15°C° 0 mm 1 mps 755 mmHg 90%

Tomorrow, 3 July, Friday

Time Temperature Precipitation Wind Pressure Humidity
00:00 +15°C° 0 mm 1 mps 755 mmHg 90%
01:00 +14°C° 0 mm 1 mps 755 mmHg 91%
02:00 +15°C° 0 mm 1 mps 755 mmHg 92%
03:00 +15°C° 0 mm 1 mps 755 mmHg 93%
04:00 +15°C° 0 mm 1 mps 755 mmHg 94%
05:00 +16°C° 0.1 mm 1 mps 755 mmHg 91%
06:00 +19°C° 0.1 mm 1 mps 755 mmHg 88%
07:00 +20°C° 0.1 mm 1 mps 755 mmHg 85%
08:00 +20°C° 0.7 mm 1 mps 755 mmHg 85%
09:00 +20°C° 0.7 mm 2 mps 755 mmHg 86%
10:00 +20°C° 0.7 mm 2 mps 755 mmHg 86%
11:00 +20°C° 0.5 mm 2 mps 755 mmHg 85%
12:00 +21°C° 0.5 mm 2 mps 755 mmHg 83%
13:00 +21°C° 0.5 mm 2 mps 755 mmHg 82%
14:00 +20°C° 0.4 mm 3 mps 755 mmHg 82%
15:00 +20°C° 0.4 mm 4 mps 756 mmHg 83%
16:00 +19°C° 0.4 mm 4 mps 756 mmHg 84%
17:00 +18°C° 0 mm 4 mps 756 mmHg 85%
18:00 +17°C° 0 mm 3 mps 757 mmHg 86%
19:00 +16°C° 0 mm 2 mps 757 mmHg 88%
20:00 +15°C° 0 mm 2 mps 757 mmHg 90%
21:00 +14°C° 0 mm 1 mps 758 mmHg 91%
22:00 +13°C° 0 mm 1 mps 758 mmHg 93%
23:00 +13°C° 0 mm 1 mps 758 mmHg 93%

Day after tomorrow, 4 July, Saturday

Time Temperature Precipitation Wind Pressure Humidity
00:00 +12°C° 0 mm 2 mps 758 mmHg 93%
01:00 +12°C° 0 mm 2 mps 758 mmHg 94%
02:00 +12°C° 0 mm 2 mps 758 mmHg 94%
03:00 +11°C° 0 mm 3 mps 758 mmHg 94%
04:00 +12°C° 0 mm 3 mps 758 mmHg 94%
05:00 +14°C° 0 mm 4 mps 758 mmHg 90%
06:00 +17°C° 0 mm 4 mps 758 mmHg 85%
07:00 +17°C° 0 mm 5 mps 758 mmHg 81%
08:00 +20°C° 0 mm 5 mps 758 mmHg 77%
09:00 +21°C° 0 mm 6 mps 758 mmHg 74%
10:00 +22°C° 0 mm 6 mps 758 mmHg 70%
11:00 +22°C° 0.1 mm 6 mps 758 mmHg 69%
12:00 +23°C° 0.1 mm 6 mps 758 mmHg 69%
13:00 +23°C° 0.1 mm 6 mps 758 mmHg 68%
14:00 +22°C° 0.1 mm 5 mps 758 mmHg 71%
15:00 +22°C° 0.1 mm 4 mps 757 mmHg 74%
16:00 +21°C° 0.1 mm 3 mps 757 mmHg 78%
17:00 +21°C° 0 mm 3 mps 757 mmHg 80%
18:00 +20°C° 0 mm 2 mps 757 mmHg 83%
19:00 +20°C° 0 mm 1 mps 757 mmHg 85%
20:00 +18°C° 0 mm 2 mps 757 mmHg 87%
21:00 +17°C° 0 mm 2 mps 757 mmHg 89%
22:00 +16°C° 0 mm 2 mps 757 mmHg 91%
23:00 +16°C° 0 mm 2 mps 757 mmHg 90%

5 July, Sunday

Time Temperature Precipitation Wind Pressure Humidity
00:00 +16°C° 0 mm 2 mps 757 mmHg 90%
01:00 +16°C° 0 mm 3 mps 757 mmHg 90%
02:00 +16°C° 0 mm 3 mps 756 mmHg 89%
03:00 +15°C° 0 mm 4 mps 756 mmHg 89%
04:00 +15°C° 0 mm 4 mps 756 mmHg 88%
05:00 +16°C° 0 mm 5 mps 755 mmHg 86%
06:00 +17°C° 0 mm 5 mps 755 mmHg 83%
07:00 +19°C° 0 mm 6 mps 755 mmHg 81%
08:00 +19°C° 0.3 mm 6 mps 755 mmHg 84%
09:00 +17°C° 0.3 mm 6 mps 755 mmHg 88%
10:00 +17°C° 0.3 mm 6 mps 755 mmHg 91%
11:00 +17°C° 0.1 mm 6 mps 754 mmHg 91%
12:00 +19°C° 0.1 mm 6 mps 754 mmHg 90%
13:00 +19°C° 0.1 mm 6 mps 754 mmHg 90%
14:00 +20°C° 0.2 mm 6 mps 754 mmHg 88%
15:00 +20°C° 0.2 mm 6 mps 754 mmHg 87%
16:00 +21°C° 0.2 mm 6 mps 754 mmHg 85%
17:00 +20°C° 0.2 mm 5 mps 753 mmHg 87%
18:00 +20°C° 0.2 mm 5 mps 753 mmHg 88%
19:00 +20°C° 0.2 mm 5 mps 753 mmHg 90%
20:00 +20°C° 0.1 mm 5 mps 752 mmHg 90%
21:00 +19°C° 0.1 mm 5 mps 752 mmHg 90%
22:00 +19°C° 0.1 mm 6 mps 752 mmHg 90%
23:00 +19°C° 0.1 mm 6 mps 751 mmHg 89%

6 July, Monday

Time Temperature Precipitation Wind Pressure Humidity
00:00 +19°C° 0.1 mm 6 mps 751 mmHg 89%
01:00 +19°C° 0.1 mm 6 mps 751 mmHg 89%
02:00 +18°C° 0.2 mm 7 mps 751 mmHg 89%
03:00 +18°C° 0.2 mm 7 mps 750 mmHg 90%
04:00 +18°C° 0.2 mm 7 mps 750 mmHg 91%
05:00 +18°C° 0.1 mm 7 mps 750 mmHg 88%
06:00 +18°C° 0.1 mm 7 mps 751 mmHg 85%
07:00 +18°C° 0.1 mm 7 mps 751 mmHg 83%
08:00 +20°C° 0 mm 7 mps 751 mmHg 77%
09:00 +20°C° 0 mm 7 mps 752 mmHg 71%
10:00 +21°C° 0 mm 7 mps 752 mmHg 65%
11:00 +21°C° 0.1 mm 6 mps 752 mmHg 65%
12:00 +21°C° 0.1 mm 6 mps 752 mmHg 66%
13:00 +22°C° 0.1 mm 5 mps 752 mmHg 67%
14:00 +21°C° 0.5 mm 4 mps 752 mmHg 72%
15:00 +20°C° 0.5 mm 4 mps 752 mmHg 76%
16:00 +20°C° 0.5 mm 4 mps 752 mmHg 81%
17:00 +19°C° 0.1 mm 3 mps 752 mmHg 82%
18:00 +18°C° 0.1 mm 3 mps 752 mmHg 82%
19:00 +17°C° 0.1 mm 3 mps 753 mmHg 83%
20:00 +16°C° 0 mm 3 mps 753 mmHg 84%
21:00 +14°C° 0 mm 3 mps 753 mmHg 86%
22:00 +13°C° 0 mm 3 mps 754 mmHg 87%
23:00 +13°C° 0 mm 3 mps 754 mmHg 87%

7 July, Tuesday

Time Temperature Precipitation Wind Pressure Humidity
00:00 +12°C° 0 mm 4 mps 754 mmHg 87%
01:00 +12°C° 0 mm 4 mps 755 mmHg 87%
02:00 +12°C° 0 mm 4 mps 755 mmHg 88%
03:00 +11°C° 0 mm 4 mps 755 mmHg 89%
04:00 +11°C° 0 mm 4 mps 755 mmHg 90%
05:00 +12°C° 0 mm 5 mps 756 mmHg 87%
06:00 +14°C° 0 mm 5 mps 756 mmHg 84%
07:00 +15°C° 0 mm 6 mps 757 mmHg 81%
08:00 +15°C° 0.2 mm 6 mps 757 mmHg 78%
09:00 +16°C° 0.2 mm 6 mps 757 mmHg 75%
10:00 +17°C° 0.2 mm 6 mps 758 mmHg 72%
11:00 +17°C° 0.1 mm 6 mps 758 mmHg 68%
12:00 +17°C° 0.1 mm 6 mps 758 mmHg 64%
13:00 +18°C° 0.1 mm 7 mps 758 mmHg 60%
14:00 +17°C° 0 mm 7 mps 758 mmHg 61%
15:00 +17°C° 0 mm 7 mps 759 mmHg 61%
16:00 +17°C° 0 mm 7 mps 759 mmHg 62%
17:00 +16°C° 0 mm 6 mps 759 mmHg 67%
18:00 +15°C° 0 mm 5 mps 759 mmHg 71%
19:00 +14°C° 0 mm 4 mps 759 mmHg 76%
20:00 +13°C° 0 mm 4 mps 759 mmHg 78%
21:00 +12°C° 0 mm 4 mps 759 mmHg 80%
22:00 +11°C° 0 mm 4 mps 759 mmHg 83%
23:00 +11°C° 0.1 mm 4 mps 759 mmHg 84%
Show more